Ina Theresa — V7UJ2 — position and weather

sailwx.info

Track history (hours):
 
Tides and Currents Weather Stations Pressure Air Temp Water Temp Dewpoint Dewpoint Depression Visibility Wind Speed Wind Dir Waves Ship Positions

Ina Theresa

Last reported at 2014-Oct-21 21:31 UTC. Time now 2014-Oct-22 13:49 UTC.
Position N 40°43' E 028°16'.

Length 122 m; draft 5.5 m.

Type: Tanker. MMSI: 538004548.

Date/timePositionNaut miles runAvg speedWind from/ knotsBaromVisibWave heightAir tempDewpointWater temp
2014-Oct-21 21:31N 40°43' E 028°16'1 0.7
2014-Oct-21 20:14N 40°42' E 028°15'0 0.4
2014-Oct-21 19:33N 40°42' E 028°15'1 1.3
2014-Oct-21 18:33N 40°43' E 028°13'1 0.6
2014-Oct-21 17:34N 40°42' E 028°14'0 0.4
2014-Oct-21 16:34N 40°42' E 028°14'0 0.5
2014-Oct-21 15:34N 40°42' E 028°15'0 0.4
2014-Oct-21 14:33N 40°42' E 028°15'0 0.2
2014-Oct-21 13:34N 40°42' E 028°16'0 0.1
2014-Oct-21 12:33N 40°42' E 028°15'1 0.3
2014-Oct-21 10:33N 40°43' E 028°14'1 0.3
2014-Oct-21 09:06N 40°43' E 028°15'1 1.7
2014-Oct-21 08:27N 40°44' E 028°16'1 0.6
2014-Oct-21 06:13N 40°43' E 028°14'1 0.2
2014-Oct-21 01:23N 40°44' E 028°15'1 0.3
2014-Oct-20 21:31N 40°43' E 028°15'0 0.2
2014-Oct-20 20:09N 40°43' E 028°15'0 0.2
2014-Oct-20 18:32N 40°43' E 028°15'0 0.3
2014-Oct-20 17:33N 40°43' E 028°14'0 0.3
2014-Oct-20 16:22N 40°43' E 028°14'0 0.5
2014-Oct-20 15:34N 40°43' E 028°14'20 0.4
2014-Oct-18 18:16N 40°53' E 028°36'912.5
2014-Oct-18 17:32N 40°55' E 028°48'4 0.5
2014-Oct-18 09:18N 40°57' E 028°53'0 0.6
2014-Oct-18 08:33N 40°57' E 028°54'4 3.9
2014-Oct-18 07:34N 40°53' E 028°54'  
2014-Oct-15 22:28N 38°50' E 025°25'1412.5
2014-Oct-15 21:20N 38°36' E 025°19'912.3
2014-Oct-15 20:33N 38°27' E 025°21'1212.5
2014-Oct-15 19:34N 38°15' E 025°26'1312.5
2014-Oct-15 18:34N 38°03' E 025°30'1212.4
2014-Oct-15 17:34N 37°51' E 025°35'1212.3
2014-Oct-15 16:34N 37°39' E 025°39'1111.3
2014-Oct-15 15:33N 37°31' E 025°49'1212.0
2014-Oct-15 14:34N 37°22' E 025°58'1111.4
2014-Oct-15 13:34N 37°11' E 026°04'1211.9
2014-Oct-15 12:34N 37°00' E 026°10'1211.7
2014-Oct-15 11:33N 36°51' E 026°20'1211.8
2014-Oct-15 10:33N 36°43' E 026°30'1212.4
2014-Oct-15 09:34N 36°34' E 026°40'1712.1
2014-Oct-15 08:11N 36°22' E 026°55'812.0
2014-Oct-15 07:30N 36°16' E 027°02'  
Track history (hours):
 
Tides and Currents Weather Stations Pressure Air Temp Water Temp Dewpoint Dewpoint Depression Visibility Wind Speed Wind Dir Waves Ship Positions

Ina Theresa

Last reported at 2014-Oct-21 21:31 UTC. Time now 2014-Oct-22 13:49 UTC.
Position N 40°43' E 028°16'.

Length 122 m; draft 5.5 m.

Type: Tanker. MMSI: 538004548.

Date/timePositionNaut miles runAvg speedWind from/ knotsBaromVisibWave heightAir tempDewpointWater temp
2014-Oct-21 21:31N 40°43' E 028°16'1 0.7
2014-Oct-21 20:14N 40°42' E 028°15'0 0.4
2014-Oct-21 19:33N 40°42' E 028°15'1 1.3
2014-Oct-21 18:33N 40°43' E 028°13'1 0.6
2014-Oct-21 17:34N 40°42' E 028°14'0 0.4
2014-Oct-21 16:34N 40°42' E 028°14'0 0.5
2014-Oct-21 15:34N 40°42' E 028°15'0 0.4
2014-Oct-21 14:33N 40°42' E 028°15'0 0.2
2014-Oct-21 13:34N 40°42' E 028°16'0 0.1
2014-Oct-21 12:33N 40°42' E 028°15'1 0.3
2014-Oct-21 10:33N 40°43' E 028°14'1 0.3
2014-Oct-21 09:06N 40°43' E 028°15'1 1.7
2014-Oct-21 08:27N 40°44' E 028°16'1 0.6
2014-Oct-21 06:13N 40°43' E 028°14'1 0.2
2014-Oct-21 01:23N 40°44' E 028°15'1 0.3
2014-Oct-20 21:31N 40°43' E 028°15'0 0.2
2014-Oct-20 20:09N 40°43' E 028°15'0 0.2
2014-Oct-20 18:32N 40°43' E 028°15'0 0.3
2014-Oct-20 17:33N 40°43' E 028°14'0 0.3
2014-Oct-20 16:22N 40°43' E 028°14'0 0.5
2014-Oct-20 15:34N 40°43' E 028°14'20 0.4
2014-Oct-18 18:16N 40°53' E 028°36'912.5
2014-Oct-18 17:32N 40°55' E 028°48'4 0.5
2014-Oct-18 09:18N 40°57' E 028°53'0 0.6
2014-Oct-18 08:33N 40°57' E 028°54'4 3.9
2014-Oct-18 07:34N 40°53' E 028°54'  
2014-Oct-15 22:28N 38°50' E 025°25'1412.5
2014-Oct-15 21:20N 38°36' E 025°19'912.3
2014-Oct-15 20:33N 38°27' E 025°21'1212.5
2014-Oct-15 19:34N 38°15' E 025°26'1312.5
2014-Oct-15 18:34N 38°03' E 025°30'1212.4
2014-Oct-15 17:34N 37°51' E 025°35'1212.3
2014-Oct-15 16:34N 37°39' E 025°39'1111.3
2014-Oct-15 15:33N 37°31' E 025°49'1212.0
2014-Oct-15 14:34N 37°22' E 025°58'1111.4
2014-Oct-15 13:34N 37°11' E 026°04'1211.9
2014-Oct-15 12:34N 37°00' E 026°10'1211.7
2014-Oct-15 11:33N 36°51' E 026°20'1211.8
2014-Oct-15 10:33N 36°43' E 026°30'1212.4
2014-Oct-15 09:34N 36°34' E 026°40'1712.1
2014-Oct-15 08:11N 36°22' E 026°55'812.0
2014-Oct-15 07:30N 36°16' E 027°02'  

Dump ship's entire track history